Location: Waco, TX
(31.5480°N, 97.1670°W)
Time: 23:30:59
(UTC-06:00)

ISS - Pass Details

Date: 09 January 2018
Orbit: 402 x 407 km, 51.6° (Epoch: 19 January)

Event Time Altitude Azimuth Distance (km) Brightness Sun altitude
Rises 09:43:16 0° 304° (NW) 2,325 -0.6 22.3°
Reaches altitude 10° 09:45:29 10° 294° (WNW) 1,463 -1.5 22.6°
Maximum altitude 09:48:25 30° 230° (SW) 747 -2.3 23.1°
Drops below altitude 10° 09:51:20 10° 167° (SSE) 1,456 0.2 23.5°
Sets 09:53:33 0° 156° (SSE) 2,312 1.2 23.8°
